Stations météo

réclame
Mon MeteoGroup
Castlederg, Grande-Bretagne (3904): Température de l'air & dewpoint: 17.08.2019 03:00:00 - 23.08.2019 03:00:00 (BST)Castlederg, Grande-Bretagne (3904): Température de l'air -20cm: 17.08.2019 03:00:00 - 23.08.2019 03:00:00 (BST)Castlederg, Grande-Bretagne (3904): Vitesse du vent & gusts: 17.08.2019 03:00:00 - 23.08.2019 03:00:00 (BST)Castlederg, Grande-Bretagne (3904): Direction du vent: 17.08.2019 03:00:00 - 23.08.2019 03:00:00 (BST)Castlederg, Grande-Bretagne (3904): reduced air pressure: 17.08.2019 03:00:00 - 23.08.2019 03:00:00 (BST)Castlederg, Grande-Bretagne (3904): visibility: 17.08.2019 03:00:00 - 23.08.2019 03:00:00 (BST)Castlederg, Grande-Bretagne (3904): Quantités de précipitations: 17.08.2019 03:00:00 - 23.08.2019 03:00:00 (BST)
Date & Time tt [°C] td [°C] tt -20cm [°C] ff [km/h] ff [knt] fx [km/h] fx [knt] dd ppp [hPa] vv [km] rr [mm]
23.08.2019 03:00:00 14,8 13,3 - 18 10 - - SW 1017,5 18 0,0
23.08.2019 02:00:00 15,2 13,7 - 22 12 - - SW 1017,3 16 0,0
23.08.2019 01:00:00 15,2 13,6 - 24 13 - - SSW 1017,4 16 0,0
23.08.2019 00:00:00 15,4 13,7 - 22 12 - - SSW 1017,3 14 0,0
22.08.2019 23:00:00 15,4 13,8 - 18 10 - - SSW 1017,4 16 0,0
22.08.2019 22:00:00 16,4 14,5 - 18 10 - - SW 1017,4 17 0,0
22.08.2019 21:00:00 16,5 14,1 - 18 10 - - SW 1016,7 16 0,0
22.08.2019 20:00:00 17,3 14,7 - 13 7 - - SW 1016,4 18 0,0
22.08.2019 19:00:00 17,7 15,0 - 24 13 46 25 WSW 1015,9 17 0,0
22.08.2019 18:00:00 18,0 14,6 - 34 18 57 31 WSW 1015,5 18 0,0
22.08.2019 17:00:00 17,9 15,2 - 34 18 52 28 WSW 1014,7 20 0,0
22.08.2019 16:00:00 17,1 16,4 - 29 16 52 28 WSW 1014,2 11 0,8
22.08.2019 15:00:00 17,5 16,6 - 24 13 - - SW 1013,7 3,9 0,4
22.08.2019 14:00:00 17,4 16,4 - 24 13 - - SW 1013,6 20 0,2
22.08.2019 13:00:00 17,1 16,2 - 22 12 - - SW 1013,7 4,8 0,4
22.08.2019 12:00:00 16,3 15,2 - 26 14 48 26 SW 1013,6 4,5 0,0
22.08.2019 11:00:00 16,1 15,1 - 22 12 - - SSW 1013,6 23 0,0
22.08.2019 10:00:00 14,2 13,6 17,0 15 8 - - SSW 1014,1 22 0,4
22.08.2019 09:00:00 12,9 11,7 - 15 8 - - SSW 1014,4 5 0,2
22.08.2019 08:00:00 13,9 11,9 - 15 8 - - SSW 1014,1 22 0,0
22.08.2019 07:00:00 12,5 11,3 - 11 6 - - SSW 1014,1 16 0,0
22.08.2019 06:00:00 12,2 11,0 - 13 7 - - SSW 1014,0 17 0,0
22.08.2019 05:00:00 12,4 11,1 - 18 10 - - SSW 1014,2 25 0,0
22.08.2019 04:00:00 13,0 11,7 - 15 8 - - SSW 1014,4 22 0,0
22.08.2019 03:00:00 13,0 11,8 - 16 9 - - SSW 1014,5 21 0,0
22.08.2019 02:00:00 12,8 11,4 - 15 8 - - SSW 1014,6 20 0,0
22.08.2019 01:00:00 12,9 11,5 - 15 8 - - SSW 1014,9 27 0,0
22.08.2019 00:00:00 13,2 11,4 - 15 8 - - SSW 1014,9 23 0,0
21.08.2019 23:00:00 11,6 10,2 - 11 6 - - SSW 1015,1 23 0,0
21.08.2019 22:00:00 11,4 9,8 - 9 5 - - SSW 1015,2 26 0,0
21.08.2019 21:00:00 11,8 9,7 - 8 4 - - SSW 1015,0 18 0,0
21.08.2019 20:00:00 14,4 11,2 - 11 6 - - WSW 1014,7 19 0,0
21.08.2019 19:00:00 15,7 10,5 - 22 12 - - WSW 1014,5 30 0,0
21.08.2019 18:00:00 16,7 11,1 - 24 13 - - WSW 1014,2 40 0,0
21.08.2019 17:00:00 17,7 15,1 - 22 12 - - SW 1013,8 35 0,0
21.08.2019 16:00:00 14,9 14,3 - 29 16 50 27 SSW 1013,6 11 2,4
21.08.2019 15:00:00 14,5 13,4 - 24 13 - - S 1013,6 7 1,8
21.08.2019 14:00:00 14,1 13,0 - 24 13 46 25 S 1014,2 8 2,4
21.08.2019 13:00:00 13,9 12,5 - 24 13 - - S 1015,2 10 2,2
21.08.2019 12:00:00 13,7 12,5 - 22 12 - - S 1015,9 11 2,6
21.08.2019 11:00:00 14,0 11,8 - 22 12 - - S 1016,5 8 0,2
21.08.2019 10:00:00 14,0 11,7 17,4 21 11 - - S 1016,8 30 0,0
21.08.2019 09:00:00 13,6 11,7 - 21 11 - - S 1017,9 28 0,0
21.08.2019 08:00:00 13,6 11,8 - 21 11 - - S 1018,2 27 0,0
21.08.2019 07:00:00 13,1 11,7 - 13 7 - - S 1018,4 28 0,0
21.08.2019 06:00:00 12,6 11,2 - 16 9 - - S 1018,9 30 0,0
21.08.2019 05:00:00 12,1 11,1 - 15 8 - - SSE 1019,4 24 0,0
21.08.2019 04:00:00 11,0 10,7 - 2 1 - - NNE 1020,0 12 0,0
21.08.2019 03:00:00 11,1 10,8 - 4 2 - - E 1020,3 17 0,0
21.08.2019 02:00:00 11,7 11,5 - 11 6 - - SSW 1020,6 16 0,0
21.08.2019 01:00:00 11,8 11,5 - 5 3 - - WSW 1020,9 11 0,0
21.08.2019 00:00:00 12,2 12,0 - 8 4 - - WSW 1020,7 10 0,0
20.08.2019 23:00:00 11,8 11,4 - 8 4 - - WSW 1020,6 6 0,0
20.08.2019 22:00:00 12,6 11,8 - 5 3 - - WSW 1020,4 6 0,0
20.08.2019 21:00:00 13,9 13,1 - 8 4 - - SW 1020,1 10 0,0
20.08.2019 20:00:00 14,9 14,1 - 9 5 - - WSW 1019,8 15 0,2
20.08.2019 19:00:00 14,9 13,6 - 15 8 - - WSW 1019,6 7 0,8
20.08.2019 18:00:00 16,4 14,2 - 18 10 - - WSW 1018,9 50 2,4
20.08.2019 17:00:00 16,0 13,6 - 13 7 - - SSW 1018,7 10 0,0
20.08.2019 16:00:00 17,6 13,8 - 9 5 - - SSW 1018,5 45 0,0
20.08.2019 15:00:00 16,1 13,6 - 4 2 - - SSW 1018,8 40 0,0
20.08.2019 14:00:00 16,5 13,2 - 16 9 - - S 1018,9 26 0,0
20.08.2019 13:00:00 16,7 12,2 - 15 8 - - S 1018,5 35 0,0
20.08.2019 12:00:00 16,6 11,6 - 13 7 - - SSW 1018,5 23 0,0
20.08.2019 11:00:00 16,3 11,2 - 15 8 - - SW 1018,6 25 0,0
20.08.2019 10:00:00 15,2 11,9 17,7 13 7 - - SSW 1018,6 23 0,0
20.08.2019 09:00:00 12,4 11,7 - 2 1 - - W 1018,4 21 0,2
20.08.2019 08:00:00 9,8 9,6 - 2 1 - - WNW 1018,2 18 0,0
20.08.2019 07:00:00 8,4 8,1 - 2 1 - - SE 1017,8 12 0,0
20.08.2019 06:00:00 8,6 8,1 - 8 4 - - W 1017,4 10 0,0
20.08.2019 05:00:00 9,6 9,2 - 8 4 - - WSW 1017,1 13 0,0
20.08.2019 04:00:00 9,3 8,8 - 5 3 - - WSW 1016,9 15 0,0
20.08.2019 03:00:00 9,0 8,6 - 5 3 - - WSW 1016,5 18 0,0
20.08.2019 02:00:00 9,5 8,8 - 9 5 - - WSW 1016,2 18 0,0
20.08.2019 01:00:00 9,7 9,2 - 9 5 - - WSW 1015,9 19 0,0
20.08.2019 00:00:00 9,1 8,5 - 9 5 - - WSW 1015,7 14 0,0
19.08.2019 23:00:00 10,3 9,6 - 9 5 - - WSW 1015,1 16 0,0
19.08.2019 22:00:00 10,9 10,1 - 9 5 - - WSW 1014,5 25 0,0
19.08.2019 21:00:00 11,5 10,8 - 9 5 - - WSW 1013,8 19 0,4
19.08.2019 20:00:00 11,9 10,8 - 15 8 - - W 1013,3 5 1,4
19.08.2019 19:00:00 12,9 11,0 - 16 9 - - W 1012,4 9 0,4
19.08.2019 18:00:00 14,3 12,5 - 13 7 - - W 1011,6 40 1,0
19.08.2019 17:00:00 14,6 11,2 - 16 9 - - W 1011,2 12 0,0
19.08.2019 16:00:00 16,8 10,2 - 24 13 50 27 WSW 1010,3 35 0,0
19.08.2019 15:00:00 16,8 12,3 - 22 12 - - W 1010,0 23 0,0
19.08.2019 14:00:00 15,2 13,3 - 18 10 - - WSW 1009,7 21 0,6
19.08.2019 13:00:00 15,3 12,3 - 21 11 - - WSW 1008,9 40 0,4
19.08.2019 12:00:00 15,5 14,1 - 15 8 - - WSW 1008,4 30 1,0
19.08.2019 11:00:00 13,1 10,2 - 18 10 - - W 1007,9 12 0,8
19.08.2019 10:00:00 14,0 11,1 17,7 18 10 - - WSW 1007,4 30 0,0
19.08.2019 09:00:00 13,2 12,0 - 13 7 - - WSW 1007,2 35 0,0
19.08.2019 08:00:00 10,9 10,5 - 5 3 - - WSW 1006,7 25 0,0
19.08.2019 07:00:00 10,4 9,8 - 4 2 - - W 1006,5 15 0,2
19.08.2019 06:00:00 10,5 10,0 - 9 5 - - SW 1006,0 35 0,4
19.08.2019 05:00:00 10,5 9,9 - 5 3 - - W 1005,8 21 0,0
19.08.2019 04:00:00 10,8 10,0 - 5 3 - - W 1005,2 21 0,0
19.08.2019 03:00:00 11,7 10,9 - 9 5 - - W 1005,0 12 0,2
19.08.2019 02:00:00 11,1 10,3 - 11 6 - - WSW 1005,0 18 0,0
19.08.2019 01:00:00 11,3 10,2 - 13 7 - - WSW 1004,7 13 0,2
19.08.2019 00:00:00 11,7 10,7 - 9 5 - - W 1004,1 11 0,0
18.08.2019 23:00:00 11,5 10,6 - 9 5 - - WSW 1003,4 13 0,0
18.08.2019 22:00:00 12,5 11,3 - 11 6 - - W 1002,8 17 0,0
18.08.2019 21:00:00 12,6 11,4 - 9 5 - - W 1001,9 10 0,4
18.08.2019 20:00:00 13,3 11,3 - 15 8 - - W 1000,9 30 0,2
18.08.2019 19:00:00 14,6 11,7 - 18 10 - - W 1000,2 28 0,0
18.08.2019 18:00:00 14,7 12,5 - 18 10 - - W 999,5 40 0,0
18.08.2019 17:00:00 13,8 12,6 - 18 10 - - W 999,0 2,5 7,6
18.08.2019 16:00:00 15,1 11,8 - 28 15 - - WSW 998,6 6 0,0
18.08.2019 15:00:00 17,1 10,3 - 22 12 - - W 997,8 19 0,0
18.08.2019 14:00:00 17,2 10,9 - 22 12 - - W 997,0 16 0,0
18.08.2019 13:00:00 17,5 10,9 - 26 14 - - WSW 996,4 28 0,0
18.08.2019 12:00:00 15,6 12,0 - 22 12 - - WSW 995,9 15 0,0
18.08.2019 11:00:00 15,3 13,2 - 16 9 - - WSW 995,1 30 0,0
18.08.2019 10:00:00 14,8 12,3 17,7 26 14 46 25 WSW 994,2 15 0,0
18.08.2019 09:00:00 14,4 11,9 - 26 14 - - WSW 993,5 21 0,0
18.08.2019 08:00:00 12,5 11,9 - 18 10 - - WSW 993,2 13 0,0
18.08.2019 07:00:00 12,0 11,4 - 11 6 - - WSW 993,1 16 0,2
18.08.2019 06:00:00 12,1 11,4 - 16 9 - - WSW 992,7 10 3,6
18.08.2019 05:00:00 12,4 11,7 - 24 13 - - SW 992,2 12 0,6
18.08.2019 04:00:00 12,6 11,2 - 28 15 48 26 SSW 992,5 30 0,0
18.08.2019 03:00:00 12,3 11,0 - 28 15 50 27 SSW 992,7 30 0,0
18.08.2019 02:00:00 12,6 11,0 - 29 16 50 27 SSW 993,3 15 0,0
18.08.2019 01:00:00 12,5 10,8 - 26 14 54 29 SSW 993,6 13 0,0
18.08.2019 00:00:00 12,5 11,0 - 28 15 52 28 SSW 993,6 17 0,2
17.08.2019 23:00:00 12,9 10,3 - 29 16 50 27 SSW 993,8 10 0,0
17.08.2019 22:00:00 13,0 10,2 - 29 16 48 26 SW 993,9 19 0,0
17.08.2019 21:00:00 13,2 9,5 - 31 17 46 25 SW 993,8 26 0,0
17.08.2019 20:00:00 14,1 9,9 - 28 15 46 25 SW 994,0 20 0,0
17.08.2019 19:00:00 15,1 10,1 - 31 17 50 27 SSW 994,0 40 0,0
17.08.2019 18:00:00 14,9 10,8 - 28 15 55 30 SSW 994,4 35 0,0
17.08.2019 17:00:00 15,3 11,0 - 22 12 - - WSW 994,3 30 0,0
17.08.2019 16:00:00 12,8 9,9 - 35 19 65 35 WSW 994,9 3,5 1,0
17.08.2019 15:00:00 14,5 12,8 - 26 14 59 32 WSW 994,9 28 2,4
17.08.2019 14:00:00 15,2 13,8 - 22 12 67 36 SW 995,0 40 1,6
17.08.2019 13:00:00 16,9 11,3 - 34 18 52 28 SW 994,8 30 0,0
17.08.2019 12:00:00 15,7 13,7 - 21 11 48 26 SW 995,3 17 0,4
17.08.2019 11:00:00 16,1 11,7 - 29 16 54 29 SW 995,1 29 0,0
17.08.2019 10:00:00 15,1 12,1 17,7 28 15 48 26 SW 995,2 23 0,0
17.08.2019 09:00:00 13,4 10,8 - 24 13 - - SW 995,3 30 0,0
17.08.2019 08:00:00 11,6 10,3 - 16 9 - - SW 995,1 19 0,0
17.08.2019 07:00:00 10,7 9,7 - 8 4 - - SW 995,1 20 0,2
17.08.2019 06:00:00 9,7 8,4 - 9 5 - - SSW 994,8 19 0,0
17.08.2019 05:00:00 10,7 9,2 - 18 10 - - SW 994,7 20 0,0
17.08.2019 04:00:00 10,9 9,9 - 16 9 - - SW 994,4 14 0,0
17.08.2019 03:00:00 11,8 11,0 - 15 8 - - WSW 994,4 14 0,2

tt = Température de l'air
td = dewpoint
tt -20cm = Température de l'air -20cm
ff = Vitesse du vent
fx = gusts
dd = Direction du vent
ppp = reduced air pressure
vv = visibility
rr = Quantités de précipitations

stations d'obs. à proximité